Find Eaglet 1

NORAD ID: 43790 Int'l Des: 2018-099 Owner: OHBI Country: I operational
LEOCIRCULARRETROGRADESSO

リアルタイム位置

3D地球を読み込み中...

Eaglet 1について

説明を読み込み中...

次回通過

Passes for default location (London). Set your location on the main map for personalized predictions.

高度履歴

Loading altitude history...

軌道要素

1 43790U 18099AJ 26104.08612035 .00002728 00000-0 16040-3 0 9991
2 43790 97.4300 155.4548 0010770 199.4046 160.6777 15.12454904402643
Epoch: Apr 14, 2026 • Age: 18 hours

現在のステータス

高度 527.8 km
速度 7.60 km/s
衛星直下点 30.97°N, 165.2°W
打ち上げ日 Dec 3, 2018
運用期間 7.3 years
タイプ other

技術仕様

分類 Payload
質量 5.00 kg
乾燥質量 5.00 kg
総質量 5.00 kg
長さ 0.30 m
直径 0.10 m
スパン 0.30 m
形状 Box+2 pan
製造者 OHBI
バスタイプ Cubesat 3U
フェーズステータス In Orbit
所有者/国 OHBI/I

Most Searched